Overview Statistics Trail Chart Weather Telemetry Raw packets
 

This is the latest recevied weather packets stored in our database for station/object GW7287. If no packets are shown the sender has not sent any weather packets the latest 10 day(s).

<< 1 2 3 4 >>
Time Temp. Humidity Pressure Rain* Wind** Luminosity Snow
1788616623 32.22° C 23% 937.6 hPa - - - -
1788613605 31.11° C 25% 937.6 hPa - - - -
1788607226 25° C 32% 937.8 hPa - - - -
1788601232 23.33° C 38% 937.5 hPa - - - -
1788591767 21.11° C 46% 936.4 hPa - - - -
1788584658 22.22° C 44% 936.3 hPa - - - -
1788575195 24.44° C 37% 937.4 hPa - - - -
1788568121 26.67° C 27% 937.4 hPa - - - -
1788566029 26.67° C 27% 937.4 hPa - - - -
1788561520 27.22° C 26% 937.2 hPa - - - -
1788559214 29.44° C 24% 937.8 hPa - - - -
1788552181 31.67° C 19% 936.7 hPa - - - -
1788551098 31.67° C 19% 936.7 hPa - - - -
1788544462 35° C 13% 936.7 hPa - - - -
1788542347 36.67° C 12% 937 hPa - - - -
1788532641 38.33° C 9% 937.6 hPa - - - -
1788530110 36.67° C 11% 938 hPa - - - -
1788516682 22.78° C 29% 939.4 hPa - - - -
1788515288 22.78° C 29% 939.4 hPa - - - -
1788499203 17.78° C 43% 938.3 hPa - - - -
1788498900 17.78° C 43% 938.3 hPa - - - -
1788482226 21.67° C 33% 938.9 hPa - - - -
1788481949 21.67° C 33% 938.9 hPa - - - -
1788475274 25° C 26% 938.8 hPa - - - -
1788472862 26.11° C 21% 938.8 hPa - - - -

* Rain since midnight (hover to see other rain measurements)
** Current wind speed in m/s (hover to see current wind gust speed)